| time (UTC) | temp C | wind direction | speed KPH | gust KPH | rain 1hr cm | rain 24hr cm | rain mn cm | humidity % | barometer mb |
| 20260504211536 | 19 | 286 | 11.3 | 27.4 | 0.00 | 0.00 | 0.00 | 45 | 1005.1 |
| 20260504210034 | 19 | 240 | 8.0 | 22.5 | 0.00 | 0.00 | 0.00 | 47 | 1005.0 |
| 20260504204534 | 19 | 261 | 4.8 | 16.1 | 0.00 | 0.00 | 0.00 | 46 | 1005.0 |
| 20260504203036 | 19 | 298 | 6.4 | 22.5 | 0.00 | 0.00 | 0.00 | 46 | 1005.1 |
| 20260504201539 | 19 | 244 | 9.7 | 25.7 | 0.00 | 0.00 | 0.00 | 47 | 1005.1 |
| 20260504200034 | 18 | 268 | 12.9 | 32.2 | 0.00 | 0.00 | 0.00 | 48 | 1005.3 |
| 20260504194534 | 18 | 267 | 12.9 | 32.2 | 0.00 | 0.00 | 0.00 | 51 | 1005.4 |
| 20260504193031 | 17 | 271 | 17.7 | 38.6 | 0.00 | 0.00 | 0.00 | 53 | 1005.7 |
| 20260504191539 | 17 | 299 | 16.1 | 29.0 | 0.00 | 0.00 | 0.00 | 52 | 1005.7 |
| 20260504190035 | 17 | 291 | 19.3 | 37.0 | 0.00 | 0.00 | 0.00 | 53 | 1005.7 |
| 20260504184542 | 16 | 295 | 11.3 | 27.4 | 0.00 | 0.00 | 0.00 | 59 | 1005.9 |
| 20260504183032 | 15 | 319 | 14.5 | 27.4 | 0.00 | 0.00 | 0.00 | 61 | 1006.0 |
| 20260504181538 | 13 | 259 | 12.9 | 29.0 | 0.00 | 0.00 | 0.00 | 62 | 1006.3 |
| 20260504180032 | 13 | 271 | 11.3 | 29.0 | 0.00 | 0.00 | 0.00 | 64 | 1006.5 |
| 20260504174538 | 13 | 298 | 11.3 | 27.4 | 0.00 | 0.00 | 0.00 | 62 | 1006.4 |
| 20260504173033 | 13 | 323 | 11.3 | 25.7 | 0.00 | 0.00 | 0.00 | 61 | 1006.4 |
| 20260504171535 | 13 | 281 | 14.5 | 27.4 | 0.00 | 0.00 | 0.00 | 62 | 1006.4 |
| 20260504081535 | 0 | 123 | 1.6 | 4.8 | 0.00 | 0.00 | 0.00 | 88 | 1007.9 |
| 20260504044532 | 0 | 110 | 1.6 | 4.8 | 0.00 | 0.00 | 0.00 | 88 | 1007.3 |
| 20260504043030 | 0 | 0 | 1.6 | 6.4 | 0.00 | 0.00 | 0.00 | 88 | 1007.4 |
| 20260504041534 | 0 | 116 | 3.2 | 4.8 | 0.00 | 0.00 | 0.00 | 88 | 1007.5 |
| 20260504040038 | 0 | 121 | 1.6 | 4.8 | 0.00 | 0.00 | 0.00 | 87 | 1007.4 |
| 20260504034535 | 0 | 125 | 1.6 | 3.2 | 0.00 | 0.00 | 0.00 | 85 | 1007.4 |
| 20260504033047 | 1 | 127 | 1.6 | 3.2 | 0.00 | 0.00 | 0.00 | 84 | 1007.4 |
| 20260504031536 | 1 | 0 | 1.6 | 4.8 | 0.00 | 0.00 | 0.00 | 82 | 1007.3 |
| 20260504030037 | 1 | 125 | 1.6 | 4.8 | 0.00 | 0.00 | 0.00 | 83 | 1007.3 |
| 20260504024544 | 1 | 117 | 1.6 | 6.4 | 0.00 | 0.00 | 0.00 | 81 | 1007.3 |
| 20260504023035 | 2 | 153 | 0.0 | 4.8 | 0.00 | 0.00 | 0.00 | 81 | 1007.4 |
| 20260504021536 | 2 | 290 | 0.0 | 6.4 | 0.00 | 0.00 | 0.00 | 80 | 1007.3 |
| 20260504020034 | 2 | 238 | 0.0 | 4.8 | 0.00 | 0.00 | 0.00 | 77 | 1007.2 |
| 20260504014532 | 3 | 246 | 1.6 | 4.8 | 0.00 | 0.03 | 0.00 | 75 | 1007.2 |
| 20260504013041 | 3 | 0 | 0.0 | 3.2 | 0.00 | 0.03 | 0.00 | 74 | 1007.2 |
| 20260504011535 | 3 | 0 | 0.0 | 6.4 | 0.00 | 0.03 | 0.00 | 70 | 1007.2 |
| 20260504010032 | 4 | 272 | 1.6 | 9.7 | 0.00 | 0.03 | 0.00 | 71 | 1007.1 |
| 20260504004541 | 5 | 282 | 4.8 | 17.7 | 0.00 | 0.05 | 0.00 | 68 | 1006.8 |
| 20260504003031 | 5 | 264 | 8.0 | 17.7 | 0.00 | 0.05 | 0.00 | 64 | 1006.5 |
| 20260504001534 | 6 | 278 | 4.8 | 11.3 | 0.00 | 0.05 | 0.00 | 61 | 1006.5 |
| 20260504000035 | 6 | 251 | 4.8 | 16.1 | 0.00 | 0.05 | 0.00 | 59 | 1006.3 |
| 20260503234535 | 7 | 284 | 9.7 | 22.5 | 0.00 | 0.10 | 0.00 | 58 | 1006.2 |
| 20260503233034 | 7 | 266 | 8.0 | 22.5 | 0.00 | 0.10 | 0.00 | 58 | 1006.1 |
| 20260503231531 | 7 | 360 | 9.7 | 27.4 | 0.00 | 0.10 | 0.00 | 57 | 1006.0 |
| 20260503230037 | 7 | 340 | 4.8 | 19.3 | 0.00 | 0.10 | 0.00 | 59 | 1005.7 |
| 20260503224535 | 8 | 300 | 8.0 | 20.9 | 0.00 | 0.13 | 0.00 | 51 | 1005.5 |
| 20260503223035 | 8 | 341 | 6.4 | 20.9 | 0.00 | 0.13 | 0.00 | 52 | 1005.4 |
| 20260503221536 | 8 | 5 | 8.0 | 27.4 | 0.00 | 0.13 | 0.00 | 49 | 1005.3 |
| 20260503220038 | 9 | 340 | 12.9 | 37.0 | 0.00 | 0.13 | 0.00 | 49 | 1005.1 |
| 20260503214531 | 10 | 279 | 14.5 | 33.8 | 0.00 | 0.13 | 0.00 | 48 | 1005.0 |
| 20260503213032 | 10 | 51 | 12.9 | 35.4 | 0.00 | 0.13 | 0.00 | 49 | 1005.0 |